Change the Weather History Date:

Thursday, November 28, 2013

  Actual Average Record
Temperature  
Mean Temperature 82 °F -  
Max Temperature 87 °F - - ()
Min Temperature 77 °F - - ()
Cooling Degree Days 17    
Growing Degree Days 32 (Base 50)    
Moisture  
Dew Point 75 °F    
Average Humidity 83    
Maximum Humidity 94    
Minimum Humidity 66    
Precipitation  
Precipitation 0.00 in - - ()
Sea Level Pressure  
Sea Level Pressure 29.90 in    
Wind  
Wind Speed 4 mph ()    
Max Wind Speed 14 mph    
Max Gust Speed 26 mph    
Visibility 5.6 miles    
Events Rain , Thunderstorm    
T = Trace of Precipitation, MM = Missing Value Source: Averaged Metar Reports

Daily Weather History Graph

Daily Weather History Graph

Search for Another Location

Airport or City:

Trip Planner

Search our weather history database for the weather conditions in past years. The results will help you decide how hot, cold, wet, or windy it might be!

Date:

Astronomy

Nov. 28, 2013 Rise Set
Actual Time 6:10 AM ICT 5:34 PM ICT
Civil Twilight 5:47 AM ICT 5:57 PM ICT
Nautical Twilight 5:20 AM ICT 6:23 PM ICT
Astronomical Twilight 4:54 AM ICT 6:50 PM ICT
Moon 1:28 AM ICT (11/28) 1:43 PM ICT (11/28)
Length of Visible Light 12h 10m
Length of Day
11h 24m
Waning Crescent, 27% of the Moon is Illuminated
Nov 28
Waning Crescent
Dec 3
New
Dec 9
First Quarter
Dec 17
Full
Dec 25
Last Quarter

Hourly Weather History & Observations

Time (ICT) Temp. Heat Index Dew Point Humidity Pressure Visibility Wind Dir Wind Speed Gust Speed Precip Events Conditions
12:00 AM 80.6 °F 87.1 °F 77.0 °F 89% 29.86 in 6.2 mi Variable 1.2 mph - N/A   Scattered Clouds
12:30 AM 80.6 °F 87.1 °F 77.0 °F 89% 29.86 in 6.2 mi SE 2.3 mph - N/A   Scattered Clouds
1:00 AM 80.6 °F 87.1 °F 77.0 °F 89% 29.86 in 6.2 mi Variable 2.3 mph - N/A   Scattered Clouds
7:00 AM 78.8 °F - 75.2 °F 89% 29.92 in 5.6 mi ESE 5.8 mph - N/A Rain Light Rain
7:30 AM 78.8 °F - 75.2 °F 89% 29.92 in 5.6 mi ESE 5.8 mph - N/A Rain Light Rain
8:00 AM 78.8 °F - 75.2 °F 89% 29.92 in 5.6 mi ESE 5.8 mph - N/A Rain Light Rain
8:30 AM 82.4 °F 89.5 °F 75.2 °F 79% 29.95 in 5.6 mi ESE 3.5 mph - N/A   Scattered Clouds
9:00 AM 80.6 °F 86.2 °F 75.2 °F 84% 29.95 in 5.6 mi ENE 4.6 mph - N/A   Scattered Clouds
9:30 AM 82.4 °F 89.5 °F 75.2 °F 79% 29.95 in 5.6 mi East 4.6 mph - N/A   Scattered Clouds
10:00 AM 82.4 °F 89.5 °F 75.2 °F 79% 29.95 in 5.6 mi Variable 2.3 mph - N/A   Scattered Clouds
10:30 AM 82.4 °F 89.5 °F 75.2 °F 79% 29.95 in 5.6 mi Variable 2.3 mph - N/A   Scattered Clouds
11:00 AM 84.2 °F 94.1 °F 77.0 °F 79% 29.95 in 5.6 mi Variable 2.3 mph - N/A   Scattered Clouds
11:30 AM 86.0 °F 95.1 °F 75.2 °F 70% 29.92 in 5.6 mi Variable 2.3 mph - N/A   Scattered Clouds
12:00 PM 86.0 °F 95.1 °F 75.2 °F 70% 29.89 in 5.6 mi Variable 2.3 mph - N/A   Scattered Clouds
12:30 PM 87.8 °F 97.6 °F 75.2 °F 66% 29.89 in 5.6 mi Variable 2.3 mph - N/A   Scattered Clouds
1:00 PM 87.8 °F 97.6 °F 75.2 °F 66% 29.86 in 5.6 mi North 5.8 mph - N/A   Scattered Clouds
1:30 PM 87.8 °F 97.6 °F 75.2 °F 66% 29.83 in 5.6 mi South 11.5 mph - N/A Rain Rain
2:00 PM 82.4 °F 90.9 °F 77.0 °F 84% 29.83 in 5.6 mi South 8.1 mph - N/A   Scattered Clouds
2:30 PM 82.4 °F 89.5 °F 75.2 °F 79% 29.83 in 5.6 mi SW 4.6 mph - N/A   Scattered Clouds
3:00 PM 86.0 °F 96.9 °F 77.0 °F 74% 29.83 in 5.6 mi SW 4.6 mph - N/A   Scattered Clouds
3:30 PM 86.0 °F 96.9 °F 77.0 °F 74% 29.83 in 5.6 mi SSW 6.9 mph - N/A   Partly Cloudy
4:00 PM 80.6 °F 87.1 °F 77.0 °F 89% 29.83 in 5.0 mi NNE 13.8 mph 26.5 mph N/A Rain , Thunderstorm Thunderstorms and Rain
4:30 PM 80.6 °F 87.1 °F 77.0 °F 89% 29.83 in 5.0 mi NNE 3.5 mph - N/A Rain Rain
5:00 PM 78.8 °F - 75.2 °F 89% 29.86 in 5.6 mi East 3.5 mph - N/A   Mostly Cloudy
5:30 PM 78.8 °F - 75.2 °F 89% 29.86 in 5.6 mi WSW 3.5 mph - N/A   Mostly Cloudy
6:00 PM 78.8 °F - 75.2 °F 89% 29.86 in 5.6 mi Calm Calm - N/A   Scattered Clouds
6:30 PM 78.8 °F - 75.2 °F 89% 29.89 in 5.6 mi Calm Calm - N/A   Scattered Clouds
7:00 PM 78.8 °F - 75.2 °F 89% 29.89 in 5.6 mi Calm Calm - N/A   Scattered Clouds
7:30 PM 78.8 °F - 77.0 °F 94% 29.89 in 5.6 mi NNW 3.5 mph - N/A   Partly Cloudy
8:00 PM 78.8 °F - 77.0 °F 94% 29.92 in 5.6 mi NNE 8.1 mph - N/A   Partly Cloudy
8:30 PM 78.8 °F - 75.2 °F 89% 29.92 in 5.6 mi NNE 8.1 mph - N/A   Scattered Clouds
9:00 PM 78.8 °F - 75.2 °F 89% 29.92 in 5.6 mi NE 5.8 mph - N/A   Scattered Clouds
9:30 PM 78.8 °F - 75.2 °F 89% 29.95 in 5.6 mi NNE 3.5 mph - N/A   Scattered Clouds
10:00 PM 78.8 °F - 73.4 °F 83% 29.95 in 5.6 mi NNE 5.8 mph - N/A   Scattered Clouds
10:30 PM 78.8 °F - 71.6 °F 78% 29.95 in - NNE 9.2 mph - N/A   Clear
11:00 PM 77.0 °F - 71.6 °F 83% 29.95 in - NNE 9.2 mph - N/A   Clear
11:30 PM 77.0 °F - 71.6 °F 83% 29.95 in - NE 9.2 mph - N/A   Clear